Content
SEND FEEDBACK

Daily
Averages
Monthly
Summary
Germany

LANDSBERG, GERMANY


Home > Europe > Germany
Elevation: 1819 feet     Latitude: 48 11N     Longitude: 010 52E

WEATHER
 
SELECT A DAY
Number of Records: 50,627;   Date Range: 12/15/98 - 7/31/14
 
SHARE

PRINT THIS DATA

[ ← Previous Day ]
WEATHER ALMANAC - FEBRUARY 13, 2013
[ Next Day → ]
[ °C ]   °F
Weather ElementAverageHighLow
Temperature20.5 °F28.4 °F (1:20 pm)6.8 °F (10:20 pm)
Dewpoint15.9 °F21.2 °F (1:20 am)3.2 °F (11:20 pm)
Humidity82.7 %93 % (2:20 am)64 % (1:20 pm)
Barometer30.10 in30.21 in (7:20 pm)29.95 in (1:20 am)
Wind Speed2.8 mph5.8 mph (12:20 pm)
Weather ElementAverage
Visibility4.2 mi
Wind DirectionSSW (187 °)

Weather ElementTotal
Precipitation---
Heating Degree Days47.4 (Base 65)
Averaged from 27 records on February 13, 2013
WEATHER CONDITIONS BREAKOUT
WIND DIRECTION BREAKOUT
WEATHER BY HOUR - FEBRUARY 13, 2013
[ °C ]   °F
Local TimeTemperatureDewpointHumidityBarometerVisibilityWind DirectionWind SpeedGust SpeedPrecipitationEventsConditions
1:20 AM24.8 °F21.2 °F86 %29.95 in3.7 miWest (260°)4.6 mphSnowLight Snow
1:30 AM24.8 °F21.2 °F86 %29.95 in3.7 miWest (270°)4.6 mphSnowLight Snow
2:20 AM23.0 °F21.2 °F93 %29.95 in3.7 miWSW (240°)3.5 mphSnowLight Snow
3:20 AM23.0 °F21.2 °F93 %29.98 in3.7 miWest (260°)2.3 mphSnowLight Snow
4:20 AM23.0 °F21.2 °F93 %29.98 in3.7 miWest (260°)2.3 mphSnowLight Snow
5:20 AM23.0 °F19.4 °F86 %30.01 in3.7 miWest (260°)2.3 mphSnowLight Snow
6:20 AM23.0 °F19.4 °F86 %30.01 in3.7 miWest (260°)2.3 mphSnowLight Snow
7:20 AM23.0 °F19.4 °F86 %30.04 in2.5 miSW (230°)2.3 mphOvercast
8:20 AM23.0 °F19.4 °F86 %30.06 in3.1 miSW (220°)3.5 mphSnowLight Snow
9:20 AM23.0 °F17.6 °F80 %30.06 in5.0 miNNW (330°)4.6 mphMostly Cloudy
10:20 AM23.0 °F17.6 °F80 %30.09 in6.2 miNW (310°)3.5 mphMostly Cloudy
11:20 AM23.0 °F15.8 °F74 %30.12 in6.2 miSSE (160°)4.6 mphScattered Clouds
11:57 AM24.8 °F17.6 °F74 %30.12 in6.2 miSouth (170°)4.6 mphScattered Clouds
12:20 PM24.8 °F17.6 °F74 %30.12 in6.2 miSouth (190°)5.8 mphScattered Clouds
1:20 PM28.4 °F17.6 °F64 %30.12 in6.2 miSW (220°)3.5 mphScattered Clouds
2:20 PM28.4 °F17.6 °F64 %30.12 in6.2 miSW (230°)3.5 mphScattered Clouds
3:20 PM26.6 °F17.6 °F69 %30.15 in6.2 miENE (60°)2.3 mphSnowLight Snow Showers
4:20 PM26.6 °F19.4 °F74 %30.15 in6.2 miNorth (360°)1.2 mphMostly Cloudy
5:20 PM21.2 °F15.8 °F80 %30.18 in6.2 miNE (40°)2.3 mphScattered Clouds
6:20 PM19.4 °F15.8 °F86 %30.18 in6.2 miCalmPartly Cloudy
7:20 PM15.8 °F14.0 °F93 %30.21 in5.0 miVariable1.2 mphFogFog
8:20 PM14.0 °F12.2 °F93 %30.21 in3.7 miSSE (160°)1.2 mphFogFog
8:45 PM14.0 °F10.4 °F86 %30.21 in1.9 miSSW (210°)1.2 mphFogPatches of Fog
9:20 PM10.4 °F6.8 °F85 %30.21 in0.3 miSSE (160°)2.3 mphFogLight Freezing Fog
10:20 PM6.8 °F5.0 °F92 %30.21 in0.4 miSouth (190°)3.5 mphFogLight Freezing Fog
11:20 PM6.8 °F3.2 °F85 %30.21 in0.6 miVariable1.2 mphFogPatches of Fog
11:40 PM6.8 °F3.2 °F85 %30.21 in1.9 miVariable1.2 mphFogPatches of Fog
Hourly data recorded from ETSL, located miles away from Landsberg, Germany







STORIES FROM OUR PARTNERS